| time (UTC) | temp F | wind direction | speed MPH | gust MPH | rain 1hr in | rain 24hr in | rain mn in | humidity % | barometer mb |
| 20260503015507 | 57 | 144 | 25.0 | 27.0 | 0.00 | 0.00 | 0.00 | 46 | 1018.7 |
| 20260503015008 | 57 | 141 | 25.0 | 29.0 | 0.00 | 0.00 | 0.00 | 46 | 1018.8 |
| 20260503014507 | 57 | 147 | 19.0 | 25.0 | 0.00 | 0.00 | 0.00 | 46 | 1019.0 |
| 20260503014006 | 57 | 145 | 26.0 | 28.0 | 0.00 | 0.00 | 0.00 | 45 | 1018.7 |
| 20260503013507 | 57 | 143 | 23.0 | 28.0 | 0.00 | 0.00 | 0.00 | 45 | 1018.6 |
| 20260503013007 | 57 | 143 | 23.0 | 26.0 | 0.00 | 0.00 | 0.00 | 45 | 1018.6 |
| 20260503012506 | 57 | 150 | 22.0 | 27.0 | 0.00 | 0.00 | 0.00 | 44 | 1018.9 |
| 20260503012007 | 57 | 138 | 23.0 | 26.0 | 0.00 | 0.00 | 0.00 | 44 | 1018.7 |
| 20260503011507 | 57 | 144 | 22.0 | 28.0 | 0.00 | 0.00 | 0.00 | 44 | 1018.6 |
| 20260503011008 | 57 | 151 | 23.0 | 27.0 | 0.00 | 0.00 | 0.00 | 44 | 1018.8 |
| 20260503010508 | 58 | 145 | 25.0 | 27.0 | 0.00 | 0.00 | 0.00 | 44 | 1018.9 |
| 20260503010009 | 58 | 148 | 24.0 | 26.0 | 0.00 | 0.00 | 0.00 | 43 | 1018.7 |
| 20260503005507 | 57 | 147 | 27.0 | 27.0 | 0.00 | 0.00 | 0.00 | 44 | 1019.0 |
| 20260503005008 | 58 | 149 | 26.0 | 27.0 | 0.00 | 0.00 | 0.00 | 43 | 1018.9 |
| 20260503004508 | 58 | 144 | 19.0 | 23.0 | 0.00 | 0.00 | 0.00 | 43 | 1018.9 |
| 20260503004007 | 58 | 143 | 21.0 | 26.0 | 0.00 | 0.00 | 0.00 | 43 | 1019.0 |
| 20260503003507 | 58 | 149 | 22.0 | 25.0 | 0.00 | 0.00 | 0.00 | 42 | 1019.0 |
| 20260503003008 | 58 | 146 | 23.0 | 26.0 | 0.00 | 0.00 | 0.00 | 43 | 1018.9 |
| 20260503002507 | 58 | 145 | 24.0 | 25.0 | 0.00 | 0.00 | 0.00 | 43 | 1019.0 |
| 20260503002007 | 58 | 145 | 22.0 | 24.0 | 0.00 | 0.00 | 0.00 | 42 | 1019.1 |
| 20260503001508 | 58 | 137 | 21.0 | 24.0 | 0.00 | 0.00 | 0.00 | 43 | 1019.2 |
| 20260503001008 | 58 | 151 | 25.0 | 27.0 | 0.00 | 0.00 | 0.00 | 43 | 1019.1 |
| 20260503000507 | 58 | 144 | 23.0 | 24.0 | 0.00 | 0.00 | 0.00 | 43 | 1019.2 |
| 20260503000008 | 58 | 145 | 22.0 | 23.0 | 0.00 | 0.00 | 0.00 | 43 | 1019.3 |
| 20260502235506 | 58 | 146 | 21.0 | 25.0 | 0.00 | 0.00 | 0.00 | 44 | 1019.4 |
| 20260502235008 | 58 | 141 | 20.0 | 22.0 | 0.00 | 0.00 | 0.00 | 43 | 1019.5 |
| 20260502234508 | 58 | 148 | 19.0 | 27.0 | 0.00 | 0.00 | 0.00 | 43 | 1019.2 |
| 20260502234007 | 59 | 152 | 20.0 | 24.0 | 0.00 | 0.00 | 0.00 | 43 | 1019.4 |
| 20260502233508 | 59 | 148 | 20.0 | 23.0 | 0.00 | 0.00 | 0.00 | 42 | 1019.4 |
| 20260502233007 | 59 | 148 | 19.0 | 23.0 | 0.00 | 0.00 | 0.00 | 42 | 1019.5 |
| 20260502232007 | 60 | 148 | 21.0 | 23.0 | 0.00 | 0.00 | 0.00 | 41 | 1019.4 |
| 20260502231507 | 60 | 150 | 21.0 | 22.0 | 0.00 | 0.00 | 0.00 | 41 | 1019.5 |
| 20260502231007 | 60 | 149 | 21.0 | 22.0 | 0.00 | 0.00 | 0.00 | 41 | 1019.7 |
| 20260502230508 | 60 | 147 | 19.0 | 21.0 | 0.00 | 0.00 | 0.00 | 41 | 1019.8 |
| 20260502230007 | 60 | 147 | 20.0 | 21.0 | 0.00 | 0.00 | 0.00 | 41 | 1019.7 |
| 20260502225507 | 60 | 142 | 19.0 | 21.0 | 0.00 | 0.00 | 0.00 | 40 | 1019.7 |
| 20260502225007 | 61 | 131 | 18.0 | 21.0 | 0.00 | 0.00 | 0.00 | 39 | 1019.7 |
| 20260502224507 | 61 | 135 | 20.0 | 21.0 | 0.00 | 0.00 | 0.00 | 39 | 1019.7 |
| 20260502224006 | 61 | 145 | 22.0 | 23.0 | 0.00 | 0.00 | 0.00 | 39 | 1019.8 |
| 20260502223508 | 61 | 143 | 20.0 | 23.0 | 0.00 | 0.00 | 0.00 | 39 | 1019.8 |
| 20260502223007 | 62 | 139 | 21.0 | 22.0 | 0.00 | 0.00 | 0.00 | 39 | 1019.7 |
| 20260502222508 | 62 | 145 | 21.0 | 24.0 | 0.00 | 0.00 | 0.00 | 38 | 1019.9 |
| 20260502222007 | 61 | 141 | 20.0 | 21.0 | 0.00 | 0.00 | 0.00 | 39 | 1020.0 |
| 20260502221508 | 62 | 142 | 20.0 | 22.0 | 0.00 | 0.00 | 0.00 | 39 | 1020.0 |
| 20260502221007 | 62 | 136 | 18.0 | 21.0 | 0.00 | 0.00 | 0.00 | 38 | 1020.0 |
| 20260502220508 | 62 | 147 | 19.0 | 21.0 | 0.00 | 0.00 | 0.00 | 37 | 1020.1 |
| 20260502220009 | 62 | 139 | 19.0 | 21.0 | 0.00 | 0.00 | 0.00 | 38 | 1019.9 |
| 20260502215508 | 62 | 137 | 17.0 | 20.0 | 0.00 | 0.00 | 0.00 | 38 | 1019.9 |
| 20260502215007 | 62 | 142 | 19.0 | 19.0 | 0.00 | 0.00 | 0.00 | 38 | 1019.9 |
| 20260502214507 | 62 | 145 | 19.0 | 21.0 | 0.00 | 0.00 | 0.00 | 37 | 1019.9 |
| 20260502214006 | 63 | 143 | 19.0 | 20.0 | 0.00 | 0.00 | 0.00 | 37 | 1020.1 |
| 20260502213507 | 63 | 135 | 17.0 | 19.0 | 0.00 | 0.00 | 0.00 | 37 | 1020.0 |
| 20260502213007 | 63 | 135 | 16.0 | 20.0 | 0.00 | 0.00 | 0.00 | 36 | 1020.1 |
| 20260502212506 | 63 | 137 | 18.0 | 19.0 | 0.00 | 0.00 | 0.00 | 36 | 1020.1 |
| 20260502212007 | 63 | 136 | 17.0 | 18.0 | 0.00 | 0.00 | 0.00 | 36 | 1020.0 |
| 20260502211507 | 64 | 132 | 17.0 | 19.0 | 0.00 | 0.00 | 0.00 | 36 | 1020.1 |
| 20260502211008 | 65 | 123 | 15.0 | 18.0 | 0.00 | 0.00 | 0.00 | 35 | 1020.1 |
| 20260502210508 | 65 | 126 | 16.0 | 16.0 | 0.00 | 0.00 | 0.00 | 34 | 1020.0 |
| 20260502210008 | 66 | 116 | 16.0 | 18.0 | 0.00 | 0.00 | 0.00 | 33 | 1020.2 |
| 20260502205507 | 66 | 110 | 13.0 | 15.0 | 0.00 | 0.00 | 0.00 | 34 | 1020.1 |
| 20260502205008 | 66 | 112 | 14.0 | 16.0 | 0.00 | 0.00 | 0.00 | 33 | 1020.2 |
| 20260502204508 | 66 | 110 | 12.0 | 18.0 | 0.00 | 0.00 | 0.00 | 33 | 1020.0 |
| 20260502204006 | 66 | 110 | 14.0 | 16.0 | 0.00 | 0.00 | 0.00 | 33 | 1019.9 |
| 20260502203507 | 66 | 109 | 17.0 | 19.0 | 0.00 | 0.00 | 0.00 | 33 | 1020.4 |
| 20260502203008 | 66 | 110 | 16.0 | 18.0 | 0.00 | 0.00 | 0.00 | 33 | 1020.3 |
| 20260502202507 | 66 | 112 | 18.0 | 19.0 | 0.00 | 0.00 | 0.00 | 32 | 1020.3 |
| 20260502202007 | 66 | 116 | 18.0 | 19.0 | 0.00 | 0.00 | 0.00 | 32 | 1020.4 |
| 20260502201508 | 66 | 112 | 18.0 | 18.0 | 0.00 | 0.00 | 0.00 | 32 | 1020.4 |
| 20260502201006 | 67 | 112 | 19.0 | 19.0 | 0.00 | 0.00 | 0.00 | 32 | 1020.2 |
| 20260502200506 | 67 | 110 | 19.0 | 20.0 | 0.00 | 0.00 | 0.00 | 31 | 1020.6 |
| 20260502200007 | 68 | 108 | 20.0 | 21.0 | 0.00 | 0.00 | 0.00 | 30 | 1020.4 |
| 20260502195507 | 68 | 110 | 21.0 | 22.0 | 0.00 | 0.00 | 0.00 | 30 | 1020.4 |
| 20260502194508 | 68 | 109 | 21.0 | 22.0 | 0.00 | 0.00 | 0.00 | 30 | 1020.5 |
| 20260502194007 | 68 | 108 | 22.0 | 23.0 | 0.00 | 0.00 | 0.00 | 30 | 1020.6 |
| 20260502193508 | 68 | 107 | 22.0 | 23.0 | 0.00 | 0.00 | 0.00 | 29 | 1020.6 |
| 20260502193008 | 68 | 109 | 22.0 | 25.0 | 0.00 | 0.00 | 0.00 | 29 | 1020.7 |
| 20260502192508 | 68 | 108 | 22.0 | 24.0 | 0.00 | 0.00 | 0.00 | 29 | 1020.5 |
| 20260502192007 | 69 | 107 | 23.0 | 24.0 | 0.00 | 0.00 | 0.00 | 28 | 1020.3 |
| 20260502191508 | 69 | 107 | 23.0 | 23.0 | 0.00 | 0.00 | 0.00 | 28 | 1020.4 |
| 20260502191007 | 69 | 108 | 21.0 | 23.0 | 0.00 | 0.00 | 0.00 | 28 | 1020.6 |
| 20260502190507 | 69 | 107 | 22.0 | 22.0 | 0.00 | 0.00 | 0.00 | 28 | 1020.5 |
| 20260502190007 | 69 | 107 | 21.0 | 21.0 | 0.00 | 0.00 | 0.00 | 29 | 1020.5 |
| 20260502185506 | 69 | 104 | 19.0 | 21.0 | 0.00 | 0.00 | 0.00 | 29 | 1020.6 |
| 20260502185008 | 69 | 102 | 18.0 | 19.0 | 0.00 | 0.00 | 0.00 | 29 | 1020.5 |
| 20260502184507 | 70 | 100 | 19.0 | 20.0 | 0.00 | 0.00 | 0.00 | 29 | 1020.7 |
| 20260502184006 | 70 | 98 | 20.0 | 20.0 | 0.00 | 0.00 | 0.00 | 30 | 1020.7 |
| 20260502183507 | 70 | 98 | 21.0 | 22.0 | 0.00 | 0.00 | 0.00 | 29 | 1020.7 |
| 20260502183008 | 70 | 98 | 19.0 | 20.0 | 0.00 | 0.00 | 0.00 | 30 | 1020.6 |
| 20260502182507 | 70 | 98 | 19.0 | 20.0 | 0.00 | 0.00 | 0.00 | 31 | 1020.8 |
| 20260502182007 | 70 | 98 | 18.0 | 18.0 | 0.00 | 0.00 | 0.00 | 31 | 1020.7 |
| 20260502181507 | 70 | 98 | 18.0 | 18.0 | 0.00 | 0.00 | 0.00 | 31 | 1020.8 |
| 20260502181007 | 70 | 97 | 18.0 | 18.0 | 0.00 | 0.00 | 0.00 | 31 | 1020.7 |
| 20260502180508 | 70 | 98 | 19.0 | 20.0 | 0.00 | 0.00 | 0.00 | 31 | 1020.8 |
| 20260502170508 | 73 | 111 | 14.0 | 15.0 | 0.00 | 0.00 | 0.00 | 25 | 1021.5 |
| 20260502164007 | 73 | 95 | 16.0 | 16.0 | 0.00 | 0.00 | 0.00 | 26 | 1021.5 |
| 20260502163507 | 73 | 103 | 13.0 | 14.0 | 0.00 | 0.00 | 0.00 | 24 | 1021.1 |
| 20260502163008 | 73 | 101 | 16.0 | 18.0 | 0.00 | 0.00 | 0.00 | 25 | 1021.7 |
| 20260502162008 | 73 | 98 | 13.0 | 16.0 | 0.00 | 0.00 | 0.00 | 23 | 1021.8 |
| 20260502161508 | 74 | 99 | 15.0 | 17.0 | 0.00 | 0.00 | 0.00 | 24 | 1021.9 |
| 20260502161007 | 74 | 89 | 11.0 | 12.0 | 0.00 | 0.00 | 0.00 | 23 | 1022.0 |
| 20260502160508 | 73 | 96 | 15.0 | 16.0 | 0.00 | 0.00 | 0.00 | 24 | 1022.1 |
| 20260502152007 | 74 | 88 | 11.0 | 13.0 | 0.00 | 0.00 | 0.00 | 26 | 1022.2 |
| 20260502151508 | 30 | 0 | 0.0 | 0.0 | 0.00 | 0.00 | 0.00 | 100 | 1022.4 |
| 20260502151008 | 73 | 85 | 18.0 | 19.0 | 0.00 | 0.00 | 0.00 | 25 | 1022.3 |
| 20260502150507 | 73 | 85 | 18.0 | 19.0 | 0.00 | 0.00 | 0.00 | 25 | 1022.5 |
| 20260502130508 | 71 | 105 | 13.0 | 16.0 | 0.00 | 0.00 | 0.00 | 28 | 1023.9 |
| 20260502123507 | 71 | 95 | 11.0 | 13.0 | 0.00 | 0.00 | 0.00 | 30 | 1024.4 |
| 20260502122507 | 71 | 100 | 16.0 | 18.0 | 0.00 | 0.00 | 0.00 | 32 | 1024.7 |
| 20260502122008 | 71 | 89 | 14.0 | 16.0 | 0.00 | 0.00 | 0.00 | 29 | 1024.4 |
| 20260502121508 | 73 | 74 | 10.0 | 11.0 | 0.00 | 0.00 | 0.00 | 26 | 1024.4 |
| 20260502121009 | 71 | 108 | 6.0 | 10.0 | 0.00 | 0.00 | 0.00 | 27 | 1024.6 |
| 20260502120507 | 72 | 100 | 12.0 | 15.0 | 0.00 | 0.00 | 0.00 | 28 | 1024.7 |
| 20260502115507 | 70 | 88 | 14.0 | 17.0 | 0.00 | 0.00 | 0.00 | 29 | 1024.8 |
| 20260502115009 | 69 | 76 | 15.0 | 17.0 | 0.00 | 0.00 | 0.00 | 28 | 1024.8 |
| 20260502114509 | 70 | 101 | 17.0 | 19.0 | 0.00 | 0.00 | 0.00 | 28 | 1025.0 |
| 20260502114007 | 70 | 84 | 15.0 | 15.0 | 0.00 | 0.00 | 0.00 | 27 | 1025.1 |
| 20260502113508 | 70 | 73 | 12.0 | 13.0 | 0.00 | 0.00 | 0.00 | 28 | 1025.1 |
| 20260502113007 | 69 | 105 | 11.0 | 13.0 | 0.00 | 0.00 | 0.00 | 28 | 1025.3 |
| 20260502112507 | 69 | 84 | 15.0 | 15.0 | 0.00 | 0.00 | 0.00 | 28 | 1025.3 |
| 20260502112008 | 68 | 94 | 17.0 | 19.0 | 0.00 | 0.00 | 0.00 | 29 | 1025.5 |
| 20260502111508 | 68 | 116 | 13.0 | 17.0 | 0.00 | 0.00 | 0.00 | 31 | 1025.3 |
| 20260502111007 | 69 | 111 | 14.0 | 15.0 | 0.00 | 0.00 | 0.00 | 29 | 1025.3 |
| 20260502110508 | 69 | 102 | 12.0 | 15.0 | 0.00 | 0.00 | 0.00 | 30 | 1025.3 |
| 20260502110008 | 68 | 77 | 14.0 | 15.0 | 0.00 | 0.00 | 0.00 | 31 | 1025.5 |
| 20260502105508 | 68 | 92 | 13.0 | 13.0 | 0.00 | 0.00 | 0.00 | 31 | 1025.5 |
| 20260502105007 | 68 | 89 | 12.0 | 13.0 | 0.00 | 0.00 | 0.00 | 33 | 1025.6 |
| 20260502104508 | 68 | 89 | 12.0 | 13.0 | 0.00 | 0.00 | 0.00 | 33 | 1025.5 |
| 20260502104007 | 68 | 94 | 11.0 | 13.0 | 0.00 | 0.00 | 0.00 | 34 | 1025.8 |
| 20260502103507 | 68 | 86 | 14.0 | 14.0 | 0.00 | 0.00 | 0.00 | 34 | 1025.5 |
| 20260502103008 | 67 | 92 | 15.0 | 16.0 | 0.00 | 0.00 | 0.00 | 35 | 1025.9 |
| 20260502102508 | 69 | 94 | 17.0 | 19.0 | 0.00 | 0.00 | 0.00 | 34 | 1025.8 |
| 20260502102007 | 68 | 104 | 12.0 | 14.0 | 0.00 | 0.00 | 0.00 | 36 | 1025.9 |
| 20260502101508 | 68 | 99 | 12.0 | 14.0 | 0.00 | 0.00 | 0.00 | 35 | 1026.0 |
| 20260502101008 | 68 | 96 | 12.0 | 13.0 | 0.00 | 0.00 | 0.00 | 36 | 1026.1 |
| 20260502100508 | 68 | 91 | 11.0 | 12.0 | 0.00 | 0.00 | 0.00 | 37 | 1026.2 |
| 20260502091507 | 66 | 105 | 6.0 | 8.0 | 0.00 | 0.00 | 0.00 | 37 | 1026.7 |
| 20260502091008 | 65 | 101 | 14.0 | 16.0 | 0.00 | 0.00 | 0.00 | 39 | 1026.4 |
| 20260502090507 | 65 | 110 | 14.0 | 19.0 | 0.00 | 0.00 | 0.00 | 37 | 1026.4 |
| 20260502071507 | 58 | 124 | 12.0 | 13.0 | 0.00 | 0.00 | 0.00 | 57 | 1026.6 |
| 20260502071008 | 57 | 109 | 10.0 | 12.0 | 0.00 | 0.00 | 0.00 | 57 | 1026.7 |
| 20260502070507 | 55 | 121 | 12.0 | 15.0 | 0.00 | 0.00 | 0.00 | 58 | 1026.6 |
| 20260502070008 | 55 | 121 | 12.0 | 15.0 | 0.00 | 0.00 | 0.00 | 58 | 1026.9 |
| 20260502065508 | 55 | 116 | 12.0 | 14.0 | 0.00 | 0.00 | 0.00 | 58 | 1026.6 |
| 20260502065007 | 54 | 125 | 15.0 | 16.0 | 0.00 | 0.00 | 0.00 | 61 | 1026.6 |
| 20260502064508 | 54 | 110 | 12.0 | 15.0 | 0.00 | 0.00 | 0.00 | 63 | 1026.7 |
| 20260502064007 | 53 | 101 | 11.0 | 14.0 | 0.00 | 0.00 | 0.00 | 64 | 1026.5 |
| 20260502063508 | 52 | 108 | 13.0 | 15.0 | 0.00 | 0.00 | 0.00 | 65 | 1026.7 |
| 20260502063008 | 52 | 112 | 15.0 | 17.0 | 0.00 | 0.00 | 0.00 | 65 | 1026.6 |
| 20260502062508 | 52 | 109 | 14.0 | 15.0 | 0.00 | 0.00 | 0.00 | 65 | 1026.7 |
| 20260502062008 | 51 | 121 | 17.0 | 18.0 | 0.00 | 0.00 | 0.00 | 65 | 1026.7 |
| 20260502061508 | 51 | 116 | 15.0 | 16.0 | 0.00 | 0.00 | 0.00 | 66 | 1026.6 |
| 20260502061007 | 51 | 112 | 12.0 | 13.0 | 0.00 | 0.00 | 0.00 | 65 | 1026.5 |
| 20260502060508 | 53 | 103 | 12.0 | 13.0 | 0.00 | 0.00 | 0.00 | 62 | 1026.5 |
| 20260502060008 | 50 | 91 | 11.0 | 13.0 | 0.00 | 0.00 | 0.00 | 67 | 1026.6 |
| 20260502055507 | 50 | 98 | 12.0 | 14.0 | 0.00 | 0.00 | 0.00 | 66 | 1026.7 |
| 20260502055008 | 50 | 113 | 13.0 | 16.0 | 0.00 | 0.00 | 0.00 | 66 | 1026.4 |
| 20260502054508 | 49 | 119 | 12.0 | 15.0 | 0.00 | 0.00 | 0.00 | 68 | 1026.7 |
| 20260502054008 | 48 | 145 | 14.0 | 16.0 | 0.00 | 0.00 | 0.00 | 69 | 1026.6 |
| 20260502053508 | 48 | 140 | 14.0 | 18.0 | 0.00 | 0.00 | 0.00 | 69 | 1026.6 |
| 20260502053008 | 48 | 122 | 16.0 | 19.0 | 0.00 | 0.00 | 0.00 | 70 | 1026.7 |
| 20260502052507 | 47 | 136 | 14.0 | 16.0 | 0.00 | 0.00 | 0.00 | 72 | 1026.4 |
| 20260502052007 | 48 | 148 | 16.0 | 17.0 | 0.00 | 0.00 | 0.00 | 70 | 1026.5 |
| 20260502051507 | 48 | 138 | 15.0 | 18.0 | 0.00 | 0.00 | 0.00 | 70 | 1026.5 |
| 20260502051007 | 48 | 148 | 15.0 | 18.0 | 0.00 | 0.00 | 0.00 | 69 | 1026.5 |
| 20260502050508 | 48 | 148 | 17.0 | 19.0 | 0.00 | 0.00 | 0.00 | 68 | 1026.6 |
| 20260502050009 | 47 | 146 | 18.0 | 19.0 | 0.00 | 0.00 | 0.00 | 69 | 1026.8 |
| 20260502045507 | 48 | 148 | 17.0 | 18.0 | 0.00 | 0.00 | 0.00 | 67 | 1026.6 |
| 20260502045008 | 48 | 151 | 16.0 | 17.0 | 0.00 | 0.00 | 0.00 | 67 | 1026.9 |
| 20260502044507 | 47 | 138 | 17.0 | 18.0 | 0.00 | 0.00 | 0.00 | 69 | 1026.8 |
| 20260502043508 | 49 | 145 | 17.0 | 18.0 | 0.00 | 0.00 | 0.00 | 64 | 1026.9 |
| 20260502043008 | 49 | 136 | 17.0 | 17.0 | 0.00 | 0.00 | 0.00 | 64 | 1026.7 |
| 20260502042508 | 49 | 137 | 16.0 | 18.0 | 0.00 | 0.00 | 0.00 | 65 | 1026.6 |
| 20260502042007 | 49 | 143 | 16.0 | 18.0 | 0.00 | 0.00 | 0.00 | 65 | 1026.7 |
| 20260502041508 | 48 | 140 | 16.0 | 17.0 | 0.00 | 0.00 | 0.00 | 66 | 1026.7 |
| 20260502041008 | 49 | 139 | 16.0 | 17.0 | 0.00 | 0.00 | 0.00 | 65 | 1026.6 |
| 20260502040507 | 49 | 137 | 17.0 | 18.0 | 0.00 | 0.00 | 0.00 | 65 | 1026.5 |
| 20260502040007 | 50 | 136 | 16.0 | 17.0 | 0.00 | 0.00 | 0.00 | 63 | 1026.5 |
| 20260502035507 | 50 | 133 | 14.0 | 15.0 | 0.00 | 0.00 | 0.00 | 64 | 1026.8 |
| 20260502035007 | 50 | 141 | 14.0 | 14.0 | 0.00 | 0.00 | 0.00 | 64 | 1026.6 |
| 20260502034508 | 49 | 137 | 13.0 | 14.0 | 0.00 | 0.00 | 0.00 | 65 | 1026.6 |
| 20260502034008 | 50 | 133 | 13.0 | 14.0 | 0.00 | 0.00 | 0.00 | 64 | 1026.6 |
| 20260502033508 | 50 | 141 | 12.0 | 14.0 | 0.00 | 0.00 | 0.00 | 63 | 1026.6 |
| 20260502033008 | 51 | 145 | 13.0 | 15.0 | 0.00 | 0.00 | 0.00 | 61 | 1026.4 |
| 20260502032507 | 51 | 146 | 16.0 | 17.0 | 0.00 | 0.00 | 0.00 | 61 | 1026.6 |
| 20260502032007 | 51 | 145 | 15.0 | 17.0 | 0.00 | 0.00 | 0.00 | 61 | 1026.5 |
| 20260502031508 | 51 | 140 | 15.0 | 17.0 | 0.00 | 0.00 | 0.00 | 62 | 1026.4 |
| 20260502031008 | 51 | 147 | 14.0 | 16.0 | 0.00 | 0.00 | 0.00 | 61 | 1026.4 |
| 20260502030508 | 51 | 149 | 13.0 | 16.0 | 0.00 | 0.00 | 0.00 | 62 | 1026.3 |
| 20260502030009 | 50 | 150 | 14.0 | 15.0 | 0.00 | 0.00 | 0.00 | 62 | 1026.6 |
| 20260502025508 | 51 | 137 | 15.0 | 16.0 | 0.00 | 0.00 | 0.00 | 61 | 1026.2 |
| 20260502025008 | 51 | 139 | 14.0 | 16.0 | 0.00 | 0.00 | 0.00 | 60 | 1026.4 |
| 20260502024508 | 52 | 135 | 15.0 | 16.0 | 0.00 | 0.00 | 0.00 | 59 | 1026.4 |
| 20260502024007 | 52 | 132 | 14.0 | 15.0 | 0.00 | 0.00 | 0.00 | 59 | 1026.2 |
| 20260502023507 | 51 | 134 | 14.0 | 15.0 | 0.00 | 0.00 | 0.00 | 61 | 1026.2 |
| 20260502023008 | 51 | 126 | 12.0 | 14.0 | 0.00 | 0.00 | 0.00 | 60 | 1026.3 |
| 20260502022508 | 53 | 127 | 14.0 | 16.0 | 0.00 | 0.00 | 0.00 | 59 | 1026.4 |
| 20260502022007 | 53 | 123 | 14.0 | 15.0 | 0.00 | 0.00 | 0.00 | 57 | 1026.2 |
| 20260502021508 | 52 | 128 | 14.0 | 16.0 | 0.00 | 0.00 | 0.00 | 58 | 1026.3 |
| 20260502021007 | 53 | 120 | 13.0 | 14.0 | 0.00 | 0.00 | 0.00 | 57 | 1026.3 |
| 20260502020508 | 52 | 125 | 13.0 | 15.0 | 0.00 | 0.00 | 0.00 | 58 | 1026.3 |
| 20260502020008 | 54 | 118 | 13.0 | 14.0 | 0.00 | 0.00 | 0.00 | 55 | 1026.2 |